GEFSNE_prec_meanprecacc_012.txt.gz
Total_Precipitation_Accumulation
0.11 0.17 0.16 0.17 0.21 0.23 0.29 0.29 0.19 0.12 0.08 0.05 0.02 0.01 0.01 0.00 0.00 0.00 0.00 0.00 0.00 0.00 0.00 0.00 0.00 0.00 0.00 0.00 0.00 0.00 0.00 0.00 0.00 0.00 0.00 0.00 0.00 0.01
0.12 0.12 0.14 0.12 0.11 0.11 0.17 0.26 0.21 0.12 0.08 0.07 0.06 0.05 0.02 0.01 0.00 0.00 0.00 0.00 0.00 0.00 0.00 0.00 0.00 0.00 0.00 0.00 0.00 0.00 0.00 0.00 0.00 0.00 0.00 0.00 0.00 0.01
0.05 0.07 0.11 0.14 0.12 0.10 0.10 0.18 0.23 0.18 0.11 0.10 0.08 0.12 0.10 0.04 0.02 0.01 0.00 0.00 0.00 0.00 0.00 0.00 0.00 0.00 0.00 0.00 0.00 0.00 0.00 0.00 0.00 0.00 0.00 0.00 0.00 0.01
0.01 0.03 0.06 0.11 0.13 0.14 0.13 0.16 0.20 0.22 0.19 0.17 0.14 0.13 0.14 0.11 0.06 0.03 0.01 0.00 0.00 0.00 0.00 0.00 0.00 0.00 0.00 0.00 0.00 0.00 0.00 0.00 0.00 0.00 0.00 0.00 0.00 0.00
0.01 0.02 0.04 0.07 0.09 0.14 0.19 0.24 0.25 0.24 0.22 0.20 0.19 0.17 0.14 0.13 0.09 0.04 0.01 0.01 0.00 0.00 0.00 0.00 0.00 0.00 0.00 0.00 0.00 0.00 0.00 0.00 0.00 0.00 0.00 0.00 0.00 0.00
0.01 0.01 0.02 0.04 0.08 0.17 0.26 0.30 0.29 0.27 0.26 0.27 0.29 0.26 0.19 0.13 0.09 0.05 0.03 0.01 0.00 0.00 0.00 0.00 0.00 0.00 0.00 0.00 0.00 0.00 0.00 0.00 0.00 0.00 0.00 0.00 0.00 0.00
0.00 0.01 0.01 0.02 0.06 0.13 0.25 0.35 0.35 0.31 0.30 0.33 0.33 0.26 0.18 0.12 0.07 0.05 0.03 0.02 0.00 0.00 0.00 0.00 0.00 0.00 0.00 0.00 0.00 0.00 0.00 0.00 0.00 0.00 0.00 0.00 0.00 0.00
0.00 0.01 0.01 0.01 0.03 0.07 0.11 0.21 0.30 0.33 0.34 0.33 0.33 0.30 0.23 0.15 0.10 0.06 0.03 0.01 0.00 0.00 0.00 0.00 0.00 0.00 0.00 0.00 0.00 0.00 0.00 0.00 0.00 0.00 0.00 0.00 0.00 0.00
0.01 0.01 0.01 0.01 0.02 0.03 0.06 0.13 0.16 0.20 0.23 0.24 0.24 0.22 0.22 0.19 0.15 0.09 0.04 0.02 0.01 0.01 0.00 0.00 0.00 0.00 0.00 0.00 0.00 0.00 0.00 0.00 0.00 0.00 0.00 0.00 0.00 0.00
0.03 0.01 0.01 0.01 0.01 0.03 0.04 0.06 0.09 0.13 0.15 0.14 0.14 0.16 0.19 0.21 0.21 0.21 0.16 0.08 0.03 0.01 0.01 0.00 0.00 0.00 0.00 0.00 0.00 0.00 0.00 0.00 0.00 0.00 0.00 0.00 0.00 0.00
0.07 0.04 0.02 0.01 0.01 0.03 0.05 0.05 0.04 0.08 0.13 0.19 0.26 0.27 0.28 0.31 0.31 0.29 0.19 0.11 0.05 0.04 0.03 0.01 0.00 0.00 0.00 0.00 0.00 0.00 0.00 0.00 0.00 0.00 0.00 0.00 0.00 0.00
0.12 0.07 0.05 0.03 0.02 0.03 0.07 0.07 0.04 0.05 0.14 0.21 0.25 0.28 0.26 0.27 0.30 0.28 0.25 0.19 0.12 0.08 0.05 0.03 0.01 0.01 0.00 0.00 0.00 0.00 0.00 0.00 0.00 0.00 0.00 0.00 0.00 0.00
0.09 0.05 0.04 0.04 0.03 0.05 0.07 0.06 0.05 0.06 0.10 0.12 0.11 0.12 0.11 0.12 0.14 0.17 0.18 0.17 0.15 0.12 0.09 0.06 0.03 0.02 0.01 0.00 0.00 0.01 0.00 0.00 0.00 0.00 0.00 0.00 0.00 0.00
0.03 0.04 0.05 0.06 0.06 0.08 0.07 0.05 0.06 0.05 0.04 0.03 0.03 0.03 0.03 0.03 0.03 0.05 0.08 0.11 0.13 0.14 0.13 0.10 0.06 0.03 0.02 0.01 0.01 0.01 0.01 0.00 0.00 0.00 0.00 0.00 0.00 0.00
0.03 0.07 0.10 0.13 0.09 0.06 0.06 0.05 0.04 0.05 0.04 0.02 0.01 0.01 0.01 0.01 0.02 0.03 0.04 0.05 0.07 0.11 0.14 0.16 0.16 0.13 0.09 0.05 0.03 0.02 0.02 0.02 0.01 0.01 0.00 0.00 0.00 0.00
0.03 0.08 0.14 0.16 0.11 0.07 0.05 0.04 0.04 0.05 0.04 0.02 0.01 0.01 0.00 0.01 0.02 0.03 0.02 0.01 0.01 0.03 0.08 0.13 0.24 0.33 0.33 0.28 0.22 0.16 0.12 0.10 0.08 0.07 0.05 0.03 0.02 0.01
0.05 0.12 0.20 0.17 0.12 0.08 0.06 0.05 0.05 0.05 0.03 0.02 0.01 0.01 0.01 0.01 0.00 0.00 0.00 0.00 0.00 0.01 0.02 0.03 0.06 0.12 0.19 0.25 0.27 0.27 0.26 0.25 0.23 0.22 0.19 0.14 0.09 0.07
0.12 0.21 0.26 0.25 0.21 0.14 0.08 0.06 0.06 0.06 0.04 0.02 0.01 0.01 0.01 0.01 0.01 0.01 0.01 0.01 0.01 0.01 0.01 0.01 0.02 0.03 0.06 0.07 0.09 0.12 0.14 0.15 0.16 0.19 0.21 0.18 0.13 0.11
0.47 0.47 0.45 0.42 0.40 0.30 0.18 0.11 0.07 0.04 0.02 0.02 0.02 0.01 0.01 0.01 0.01 0.01 0.01 0.01 0.01 0.01 0.00 0.00 0.02 0.03 0.05 0.04 0.04 0.06 0.08 0.10 0.12 0.13 0.14 0.13 0.11 0.11
0.63 0.60 0.62 0.59 0.54 0.37 0.21 0.12 0.06 0.03 0.02 0.01 0.01 0.00 0.01 0.01 0.01 0.00 0.00 0.00 0.00 0.00 0.00 0.01 0.01 0.03 0.05 0.06 0.05 0.04 0.07 0.11 0.13 0.14 0.14 0.13 0.12 0.13
0.33 0.35 0.37 0.36 0.31 0.20 0.09 0.05 0.02 0.00 0.00 0.00 0.00 0.00 0.00 0.00 0.00 0.01 0.01 0.01 0.01 0.01 0.01 0.01 0.01 0.03 0.03 0.05 0.05 0.02 0.02 0.07 0.10 0.11 0.11 0.14 0.15 0.15
0.10 0.10 0.10 0.09 0.07 0.04 0.02 0.01 0.01 0.01 0.00 0.00 0.00 0.00 0.00 0.00 0.00 0.01 0.01 0.01 0.01 0.02 0.02 0.02 0.02 0.02 0.03 0.04 0.04 0.03 0.03 0.03 0.06 0.11 0.12 0.12 0.12 0.14
0.03 0.03 0.03 0.03 0.01 0.01 0.01 0.01 0.01 0.00 0.00 0.00 0.00 0.00 0.00 0.01 0.01 0.01 0.01 0.02 0.02 0.03 0.02 0.02 0.02 0.02 0.03 0.04 0.05 0.05 0.04 0.03 0.03 0.07 0.14 0.24 0.22 0.15

GEFSNE_prec_meanprecacc_018.txt.gz
Total_Precipitation_Accumulation
0.12 0.19 0.20 0.23 0.29 0.31 0.38 0.37 0.27 0.19 0.16 0.12 0.07 0.02 0.01 0.01 0.00 0.00 0.00 0.00 0.00 0.00 0.00 0.00 0.00 0.00 0.00 0.00 0.00 0.00 0.00 0.00 0.00 0.00 0.00 0.00 0.01 0.01
0.13 0.15 0.18 0.18 0.19 0.20 0.27 0.36 0.29 0.18 0.13 0.14 0.12 0.07 0.04 0.02 0.01 0.00 0.00 0.00 0.00 0.00 0.00 0.00 0.00 0.00 0.00 0.00 0.00 0.00 0.00 0.00 0.00 0.00 0.00 0.00 0.00 0.01
0.06 0.08 0.14 0.21 0.22 0.21 0.22 0.29 0.33 0.26 0.17 0.15 0.12 0.14 0.11 0.05 0.04 0.03 0.01 0.00 0.00 0.00 0.00 0.00 0.00 0.00 0.00 0.00 0.00 0.00 0.00 0.00 0.00 0.00 0.00 0.00 0.00 0.01
0.02 0.03 0.08 0.14 0.18 0.20 0.22 0.25 0.28 0.31 0.27 0.24 0.20 0.16 0.15 0.12 0.08 0.04 0.03 0.02 0.01 0.01 0.00 0.00 0.00 0.00 0.00 0.00 0.00 0.00 0.00 0.00 0.00 0.00 0.00 0.00 0.00 0.00
0.01 0.02 0.05 0.08 0.12 0.17 0.24 0.30 0.32 0.30 0.29 0.27 0.26 0.23 0.17 0.15 0.10 0.05 0.03 0.03 0.04 0.02 0.01 0.00 0.00 0.00 0.00 0.00 0.00 0.00 0.00 0.00 0.00 0.00 0.00 0.00 0.00 0.00
0.01 0.01 0.02 0.05 0.10 0.21 0.31 0.37 0.38 0.36 0.36 0.36 0.36 0.33 0.24 0.16 0.10 0.06 0.05 0.04 0.03 0.03 0.01 0.00 0.00 0.00 0.00 0.00 0.00 0.00 0.00 0.00 0.00 0.00 0.00 0.00 0.00 0.00
0.01 0.01 0.01 0.03 0.07 0.16 0.28 0.43 0.45 0.43 0.42 0.44 0.43 0.36 0.26 0.17 0.11 0.08 0.06 0.05 0.03 0.01 0.00 0.00 0.00 0.00 0.00 0.00 0.00 0.00 0.00 0.00 0.00 0.00 0.00 0.00 0.00 0.00
0.02 0.01 0.01 0.01 0.03 0.07 0.12 0.24 0.35 0.41 0.44 0.43 0.44 0.41 0.33 0.24 0.19 0.13 0.07 0.04 0.03 0.03 0.01 0.01 0.00 0.00 0.00 0.00 0.00 0.00 0.00 0.00 0.00 0.00 0.00 0.00 0.00 0.00
0.05 0.02 0.02 0.01 0.02 0.03 0.07 0.13 0.17 0.21 0.25 0.28 0.30 0.30 0.31 0.28 0.24 0.17 0.11 0.08 0.08 0.06 0.02 0.03 0.02 0.01 0.01 0.00 0.00 0.00 0.00 0.00 0.00 0.00 0.00 0.00 0.00 0.00
0.15 0.06 0.03 0.01 0.02 0.04 0.05 0.07 0.11 0.14 0.15 0.15 0.16 0.19 0.22 0.26 0.27 0.29 0.25 0.17 0.10 0.07 0.04 0.03 0.03 0.02 0.01 0.01 0.00 0.00 0.00 0.00 0.00 0.00 0.00 0.00 0.00 0.00
0.20 0.15 0.10 0.06 0.06 0.05 0.06 0.06 0.06 0.09 0.13 0.19 0.27 0.28 0.29 0.33 0.35 0.36 0.31 0.26 0.21 0.19 0.17 0.12 0.09 0.06 0.03 0.02 0.01 0.00 0.00 0.00 0.00 0.00 0.00 0.00 0.00 0.00
0.20 0.16 0.19 0.15 0.12 0.09 0.08 0.11 0.09 0.08 0.15 0.22 0.26 0.28 0.28 0.31 0.36 0.37 0.39 0.40 0.36 0.31 0.26 0.20 0.17 0.15 0.11 0.06 0.03 0.01 0.01 0.00 0.00 0.00 0.00 0.00 0.00 0.00
0.14 0.11 0.10 0.13 0.12 0.12 0.10 0.09 0.11 0.09 0.11 0.14 0.12 0.13 0.13 0.15 0.20 0.24 0.30 0.34 0.36 0.35 0.32 0.27 0.22 0.20 0.16 0.11 0.07 0.04 0.02 0.01 0.00 0.00 0.00 0.00 0.00 0.00
0.05 0.06 0.06 0.08 0.10 0.12 0.10 0.09 0.09 0.06 0.07 0.06 0.04 0.04 0.04 0.06 0.07 0.10 0.14 0.19 0.23 0.28 0.29 0.22 0.18 0.15 0.13 0.09 0.07 0.05 0.03 0.02 0.01 0.01 0.00 0.00 0.00 0.00
0.03 0.07 0.11 0.14 0.11 0.09 0.09 0.08 0.08 0.08 0.08 0.06 0.05 0.03 0.02 0.03 0.04 0.05 0.06 0.08 0.11 0.14 0.18 0.20 0.21 0.17 0.12 0.08 0.05 0.04 0.04 0.03 0.02 0.02 0.01 0.01 0.01 0.01
0.03 0.09 0.14 0.17 0.12 0.10 0.09 0.07 0.08 0.09 0.09 0.07 0.05 0.02 0.02 0.02 0.04 0.05 0.05 0.04 0.04 0.06 0.09 0.14 0.26 0.36 0.36 0.30 0.24 0.17 0.14 0.11 0.09 0.09 0.07 0.05 0.05 0.04
0.06 0.15 0.23 0.20 0.15 0.11 0.08 0.08 0.08 0.08 0.07 0.06 0.05 0.04 0.03 0.03 0.02 0.02 0.02 0.02 0.03 0.04 0.05 0.05 0.06 0.12 0.21 0.26 0.29 0.28 0.28 0.28 0.26 0.25 0.21 0.15 0.11 0.09
0.16 0.28 0.33 0.32 0.28 0.21 0.13 0.11 0.11 0.11 0.09 0.08 0.07 0.05 0.04 0.04 0.04 0.04 0.03 0.04 0.04 0.05 0.05 0.03 0.02 0.04 0.06 0.08 0.10 0.14 0.17 0.18 0.20 0.23 0.23 0.19 0.14 0.12
0.53 0.56 0.55 0.51 0.48 0.37 0.24 0.18 0.12 0.09 0.07 0.06 0.05 0.04 0.03 0.03 0.03 0.03 0.03 0.03 0.03 0.03 0.02 0.02 0.03 0.05 0.07 0.07 0.07 0.07 0.11 0.14 0.15 0.16 0.17 0.16 0.13 0.12
0.69 0.70 0.74 0.70 0.62 0.45 0.27 0.18 0.11 0.06 0.04 0.03 0.03 0.02 0.01 0.02 0.01 0.01 0.01 0.01 0.01 0.01 0.02 0.03 0.04 0.06 0.08 0.09 0.08 0.06 0.09 0.13 0.16 0.17 0.16 0.16 0.13 0.13
0.37 0.42 0.45 0.43 0.37 0.25 0.14 0.09 0.04 0.01 0.01 0.00 0.00 0.00 0.00 0.00 0.01 0.01 0.02 0.02 0.02 0.02 0.03 0.03 0.04 0.05 0.05 0.07 0.08 0.06 0.07 0.11 0.13 0.12 0.13 0.15 0.16 0.16
0.11 0.12 0.12 0.10 0.08 0.05 0.03 0.02 0.02 0.01 0.00 0.00 0.00 0.01 0.01 0.01 0.01 0.02 0.02 0.03 0.03 0.03 0.03 0.03 0.03 0.03 0.05 0.06 0.08 0.07 0.05 0.04 0.08 0.13 0.13 0.13 0.14 0.15
0.03 0.04 0.04 0.03 0.02 0.01 0.01 0.01 0.01 0.01 0.00 0.00 0.00 0.01 0.01 0.02 0.02 0.02 0.02 0.03 0.03 0.03 0.03 0.03 0.03 0.03 0.04 0.05 0.06 0.06 0.05 0.04 0.04 0.08 0.15 0.25 0.23 0.16

GEFSNE_prec_meanprecacc_024.txt.gz
Total_Precipitation_Accumulation
0.13 0.21 0.22 0.26 0.33 0.36 0.44 0.45 0.38 0.31 0.30 0.23 0.13 0.06 0.03 0.01 0.01 0.00 0.00 0.00 0.00 0.00 0.00 0.00 0.00 0.00 0.00 0.00 0.00 0.00 0.00 0.00 0.00 0.00 0.00 0.00 0.01 0.01
0.14 0.16 0.20 0.21 0.24 0.26 0.35 0.46 0.42 0.31 0.27 0.26 0.20 0.15 0.12 0.06 0.05 0.02 0.00 0.00 0.00 0.00 0.00 0.00 0.00 0.00 0.00 0.00 0.00 0.00 0.00 0.00 0.00 0.00 0.00 0.00 0.00 0.01
0.07 0.09 0.15 0.23 0.27 0.29 0.32 0.42 0.48 0.42 0.31 0.32 0.24 0.23 0.23 0.16 0.14 0.07 0.02 0.01 0.01 0.02 0.01 0.00 0.00 0.00 0.00 0.00 0.00 0.00 0.00 0.00 0.00 0.00 0.00 0.00 0.00 0.01
0.02 0.04 0.08 0.15 0.21 0.27 0.32 0.37 0.43 0.49 0.45 0.44 0.41 0.31 0.28 0.26 0.24 0.18 0.09 0.05 0.03 0.08 0.09 0.03 0.01 0.00 0.00 0.00 0.00 0.00 0.00 0.00 0.00 0.00 0.00 0.00 0.00 0.00
0.01 0.02 0.05 0.09 0.14 0.22 0.31 0.40 0.44 0.48 0.49 0.44 0.48 0.48 0.37 0.33 0.25 0.17 0.10 0.08 0.07 0.07 0.11 0.06 0.02 0.00 0.00 0.00 0.00 0.00 0.00 0.00 0.00 0.00 0.00 0.00 0.00 0.00
0.01 0.02 0.02 0.05 0.12 0.25 0.38 0.47 0.50 0.50 0.52 0.52 0.53 0.56 0.48 0.37 0.26 0.20 0.18 0.14 0.10 0.08 0.06 0.06 0.03 0.01 0.01 0.00 0.00 0.00 0.00 0.00 0.00 0.00 0.00 0.00 0.00 0.00
0.02 0.02 0.02 0.03 0.08 0.18 0.31 0.49 0.54 0.55 0.56 0.57 0.56 0.51 0.44 0.34 0.27 0.22 0.18 0.20 0.14 0.10 0.08 0.06 0.05 0.04 0.04 0.04 0.03 0.03 0.01 0.00 0.00 0.00 0.00 0.00 0.00 0.00
0.05 0.03 0.03 0.03 0.04 0.08 0.12 0.25 0.38 0.47 0.54 0.53 0.53 0.50 0.46 0.39 0.35 0.27 0.18 0.14 0.14 0.14 0.11 0.13 0.13 0.12 0.13 0.13 0.13 0.14 0.08 0.03 0.01 0.00 0.00 0.00 0.00 0.00
0.11 0.08 0.07 0.05 0.04 0.05 0.09 0.15 0.19 0.22 0.27 0.32 0.39 0.41 0.43 0.39 0.34 0.27 0.20 0.16 0.18 0.16 0.10 0.12 0.15 0.15 0.17 0.16 0.10 0.08 0.08 0.04 0.01 0.00 0.00 0.00 0.00 0.00
0.20 0.11 0.10 0.08 0.09 0.11 0.09 0.12 0.15 0.19 0.19 0.17 0.22 0.27 0.28 0.31 0.32 0.34 0.31 0.21 0.15 0.11 0.08 0.08 0.10 0.11 0.10 0.10 0.07 0.05 0.03 0.02 0.01 0.00 0.00 0.00 0.00 0.00
0.26 0.22 0.21 0.20 0.28 0.21 0.14 0.14 0.16 0.18 0.19 0.22 0.28 0.30 0.30 0.33 0.36 0.40 0.36 0.29 0.24 0.22 0.19 0.15 0.12 0.10 0.08 0.07 0.06 0.05 0.03 0.02 0.01 0.01 0.00 0.00 0.00 0.00
0.33 0.30 0.37 0.29 0.31 0.22 0.14 0.21 0.24 0.23 0.23 0.29 0.30 0.31 0.29 0.31 0.37 0.38 0.43 0.44 0.40 0.34 0.28 0.21 0.19 0.18 0.15 0.12 0.08 0.05 0.03 0.03 0.02 0.02 0.01 0.01 0.01 0.01
0.29 0.27 0.22 0.22 0.18 0.17 0.15 0.18 0.26 0.20 0.19 0.24 0.22 0.19 0.18 0.20 0.24 0.28 0.35 0.39 0.41 0.41 0.36 0.28 0.24 0.23 0.19 0.16 0.12 0.08 0.05 0.04 0.03 0.03 0.03 0.03 0.03 0.02
0.13 0.15 0.14 0.14 0.13 0.15 0.12 0.15 0.18 0.12 0.15 0.19 0.17 0.13 0.13 0.13 0.13 0.15 0.19 0.25 0.30 0.36 0.35 0.27 0.22 0.19 0.17 0.14 0.12 0.09 0.06 0.05 0.04 0.04 0.04 0.04 0.04 0.03
0.04 0.08 0.11 0.15 0.12 0.11 0.11 0.12 0.11 0.12 0.18 0.19 0.17 0.13 0.10 0.09 0.09 0.09 0.11 0.14 0.18 0.19 0.22 0.26 0.27 0.24 0.18 0.13 0.09 0.07 0.07 0.06 0.05 0.04 0.04 0.05 0.04 0.03
0.05 0.10 0.15 0.17 0.14 0.14 0.13 0.11 0.13 0.16 0.18 0.19 0.17 0.11 0.06 0.06 0.08 0.08 0.10 0.10 0.11 0.12 0.13 0.18 0.30 0.41 0.41 0.35 0.28 0.22 0.19 0.16 0.14 0.13 0.11 0.08 0.07 0.06
0.10 0.22 0.31 0.27 0.22 0.17 0.15 0.17 0.18 0.18 0.18 0.19 0.18 0.12 0.09 0.08 0.07 0.05 0.05 0.07 0.09 0.10 0.11 0.09 0.09 0.14 0.23 0.29 0.33 0.34 0.34 0.33 0.31 0.30 0.25 0.17 0.13 0.13
0.24 0.38 0.45 0.47 0.44 0.36 0.28 0.26 0.26 0.24 0.23 0.22 0.20 0.16 0.13 0.11 0.09 0.07 0.06 0.07 0.08 0.09 0.09 0.07 0.04 0.05 0.08 0.12 0.13 0.18 0.22 0.22 0.24 0.27 0.27 0.21 0.16 0.16
0.59 0.62 0.62 0.62 0.61 0.49 0.37 0.30 0.23 0.20 0.20 0.19 0.16 0.12 0.10 0.07 0.06 0.05 0.05 0.05 0.05 0.05 0.04 0.04 0.04 0.06 0.08 0.09 0.10 0.09 0.12 0.16 0.18 0.19 0.19 0.18 0.15 0.14
0.70 0.72 0.77 0.74 0.67 0.49 0.33 0.23 0.15 0.12 0.11 0.09 0.07 0.04 0.03 0.03 0.02 0.02 0.03 0.02 0.02 0.02 0.03 0.05 0.06 0.07 0.09 0.11 0.10 0.08 0.10 0.15 0.18 0.18 0.17 0.16 0.14 0.14
0.38 0.43 0.46 0.44 0.38 0.26 0.16 0.11 0.05 0.02 0.01 0.01 0.01 0.01 0.01 0.01 0.02 0.02 0.03 0.02 0.03 0.03 0.04 0.04 0.05 0.05 0.05 0.08 0.10 0.08 0.09 0.12 0.13 0.12 0.13 0.15 0.16 0.16
0.12 0.12 0.12 0.11 0.09 0.06 0.03 0.03 0.03 0.01 0.01 0.00 0.01 0.01 0.02 0.02 0.02 0.02 0.03 0.04 0.04 0.04 0.04 0.04 0.03 0.04 0.05 0.07 0.09 0.08 0.06 0.05 0.08 0.13 0.14 0.14 0.14 0.15
0.03 0.04 0.04 0.03 0.02 0.01 0.01 0.01 0.01 0.01 0.00 0.00 0.01 0.01 0.02 0.03 0.03 0.03 0.03 0.03 0.04 0.04 0.03 0.03 0.03 0.03 0.04 0.06 0.07 0.07 0.06 0.05 0.06 0.09 0.17 0.26 0.23 0.16

GEFSNE_prec_meanprecacc_030.txt.gz
Total_Precipitation_Accumulation
0.19 0.25 0.25 0.29 0.35 0.38 0.46 0.47 0.39 0.31 0.30 0.23 0.14 0.07 0.06 0.03 0.03 0.01 0.01 0.01 0.00 0.00 0.00 0.00 0.00 0.00 0.00 0.00 0.00 0.00 0.00 0.00 0.00 0.00 0.00 0.00 0.01 0.01
0.18 0.19 0.21 0.22 0.25 0.27 0.36 0.48 0.44 0.32 0.28 0.27 0.21 0.16 0.15 0.10 0.11 0.07 0.03 0.02 0.01 0.00 0.00 0.00 0.00 0.00 0.00 0.00 0.00 0.00 0.00 0.00 0.00 0.00 0.00 0.00 0.00 0.01
0.09 0.11 0.16 0.23 0.27 0.30 0.33 0.43 0.50 0.44 0.32 0.34 0.27 0.26 0.27 0.22 0.22 0.15 0.07 0.04 0.03 0.03 0.02 0.01 0.00 0.00 0.00 0.00 0.00 0.00 0.00 0.00 0.00 0.00 0.00 0.00 0.00 0.01
0.04 0.05 0.10 0.16 0.22 0.28 0.33 0.37 0.44 0.51 0.46 0.46 0.45 0.36 0.33 0.32 0.32 0.28 0.18 0.11 0.09 0.14 0.16 0.09 0.04 0.02 0.01 0.01 0.00 0.00 0.00 0.00 0.00 0.00 0.00 0.00 0.00 0.00
0.07 0.06 0.08 0.10 0.15 0.22 0.31 0.41 0.45 0.50 0.51 0.46 0.51 0.53 0.42 0.39 0.31 0.25 0.19 0.18 0.18 0.17 0.23 0.22 0.16 0.10 0.07 0.05 0.03 0.02 0.01 0.00 0.00 0.00 0.00 0.00 0.00 0.00
0.13 0.10 0.08 0.08 0.14 0.26 0.39 0.47 0.51 0.51 0.53 0.53 0.55 0.58 0.50 0.41 0.29 0.24 0.25 0.25 0.23 0.18 0.14 0.17 0.18 0.14 0.11 0.09 0.06 0.05 0.04 0.02 0.01 0.01 0.00 0.00 0.00 0.00
0.11 0.09 0.09 0.08 0.10 0.19 0.32 0.50 0.54 0.56 0.56 0.58 0.58 0.53 0.46 0.36 0.29 0.26 0.24 0.30 0.25 0.20 0.16 0.13 0.14 0.15 0.15 0.15 0.13 0.12 0.09 0.07 0.05 0.03 0.02 0.01 0.01 0.00
0.12 0.09 0.09 0.07 0.07 0.10 0.13 0.25 0.38 0.48 0.55 0.54 0.55 0.51 0.47 0.41 0.37 0.29 0.22 0.20 0.21 0.23 0.19 0.21 0.20 0.21 0.26 0.27 0.29 0.32 0.27 0.21 0.15 0.09 0.06 0.04 0.02 0.01
0.15 0.13 0.14 0.12 0.10 0.11 0.12 0.17 0.20 0.23 0.27 0.33 0.40 0.42 0.44 0.41 0.36 0.29 0.22 0.17 0.21 0.20 0.16 0.18 0.20 0.21 0.24 0.23 0.21 0.22 0.22 0.20 0.16 0.12 0.09 0.06 0.03 0.02
0.23 0.16 0.17 0.17 0.19 0.24 0.20 0.19 0.20 0.22 0.21 0.19 0.23 0.28 0.29 0.32 0.32 0.34 0.31 0.21 0.15 0.12 0.09 0.10 0.13 0.14 0.12 0.13 0.13 0.12 0.12 0.12 0.11 0.09 0.08 0.06 0.04 0.04
0.28 0.25 0.25 0.27 0.39 0.36 0.25 0.24 0.26 0.27 0.26 0.27 0.31 0.32 0.31 0.34 0.36 0.40 0.36 0.29 0.24 0.22 0.20 0.15 0.12 0.11 0.08 0.08 0.08 0.07 0.07 0.06 0.06 0.05 0.05 0.05 0.05 0.05
0.34 0.32 0.41 0.35 0.39 0.32 0.22 0.27 0.32 0.32 0.31 0.35 0.35 0.34 0.31 0.32 0.37 0.38 0.43 0.44 0.40 0.34 0.28 0.21 0.19 0.18 0.16 0.12 0.08 0.05 0.04 0.05 0.05 0.04 0.04 0.05 0.05 0.04
0.29 0.28 0.24 0.26 0.22 0.21 0.18 0.21 0.31 0.28 0.29 0.32 0.28 0.24 0.21 0.23 0.26 0.29 0.36 0.39 0.41 0.41 0.36 0.28 0.24 0.23 0.19 0.16 0.12 0.08 0.05 0.04 0.04 0.04 0.05 0.06 0.05 0.05
0.13 0.15 0.14 0.15 0.14 0.17 0.14 0.18 0.22 0.17 0.22 0.25 0.21 0.17 0.17 0.17 0.16 0.18 0.20 0.25 0.30 0.36 0.36 0.27 0.22 0.19 0.17 0.14 0.12 0.09 0.06 0.05 0.04 0.04 0.04 0.05 0.04 0.04
0.04 0.08 0.12 0.15 0.13 0.12 0.13 0.14 0.14 0.15 0.22 0.22 0.20 0.17 0.12 0.11 0.10 0.11 0.12 0.14 0.18 0.19 0.22 0.27 0.28 0.24 0.18 0.13 0.09 0.07 0.07 0.06 0.05 0.04 0.05 0.05 0.04 0.03
0.05 0.10 0.15 0.18 0.15 0.15 0.15 0.13 0.15 0.19 0.21 0.21 0.20 0.14 0.08 0.08 0.09 0.10 0.10 0.10 0.11 0.12 0.14 0.18 0.31 0.41 0.41 0.35 0.28 0.22 0.19 0.16 0.14 0.13 0.11 0.08 0.07 0.07
0.11 0.23 0.32 0.29 0.24 0.20 0.18 0.20 0.22 0.21 0.19 0.21 0.20 0.14 0.09 0.09 0.08 0.06 0.06 0.07 0.09 0.10 0.11 0.09 0.09 0.14 0.23 0.29 0.33 0.34 0.34 0.33 0.31 0.30 0.25 0.17 0.13 0.14
0.25 0.40 0.47 0.50 0.47 0.39 0.32 0.29 0.29 0.27 0.25 0.23 0.21 0.17 0.14 0.12 0.10 0.08 0.06 0.07 0.08 0.09 0.09 0.07 0.04 0.05 0.08 0.12 0.13 0.18 0.22 0.22 0.24 0.27 0.27 0.21 0.16 0.17
0.60 0.63 0.64 0.64 0.63 0.52 0.40 0.32 0.25 0.22 0.21 0.20 0.17 0.13 0.10 0.08 0.06 0.05 0.05 0.05 0.05 0.05 0.04 0.04 0.04 0.06 0.08 0.09 0.11 0.09 0.13 0.16 0.18 0.19 0.19 0.18 0.15 0.15
0.71 0.72 0.77 0.74 0.68 0.50 0.33 0.24 0.16 0.13 0.12 0.09 0.07 0.05 0.03 0.03 0.02 0.02 0.03 0.02 0.02 0.02 0.03 0.05 0.06 0.07 0.09 0.11 0.11 0.09 0.10 0.15 0.18 0.18 0.17 0.16 0.14 0.14
0.38 0.43 0.46 0.44 0.38 0.27 0.16 0.11 0.05 0.02 0.02 0.01 0.01 0.01 0.01 0.01 0.02 0.02 0.03 0.02 0.03 0.04 0.04 0.04 0.05 0.05 0.05 0.08 0.10 0.09 0.09 0.12 0.13 0.12 0.13 0.15 0.16 0.16
0.12 0.12 0.12 0.11 0.09 0.06 0.03 0.03 0.03 0.01 0.01 0.00 0.01 0.01 0.02 0.02 0.02 0.03 0.04 0.04 0.04 0.04 0.04 0.04 0.03 0.04 0.05 0.07 0.09 0.08 0.06 0.05 0.08 0.13 0.14 0.14 0.14 0.15
0.03 0.04 0.04 0.03 0.02 0.01 0.01 0.01 0.01 0.01 0.00 0.00 0.01 0.01 0.02 0.03 0.03 0.03 0.03 0.03 0.04 0.04 0.03 0.03 0.03 0.03 0.04 0.06 0.07 0.07 0.06 0.05 0.06 0.09 0.17 0.26 0.23 0.16

GEFSNE_prec_meanprecacc_036.txt.gz
Total_Precipitation_Accumulation
0.35 0.42 0.41 0.43 0.48 0.48 0.54 0.52 0.42 0.33 0.30 0.23 0.14 0.07 0.06 0.03 0.03 0.02 0.01 0.02 0.03 0.03 0.02 0.01 0.01 0.01 0.01 0.01 0.01 0.01 0.01 0.01 0.01 0.00 0.00 0.00 0.01 0.01
0.27 0.29 0.31 0.30 0.31 0.33 0.41 0.52 0.47 0.34 0.28 0.27 0.21 0.16 0.15 0.10 0.11 0.07 0.04 0.03 0.03 0.03 0.02 0.01 0.01 0.01 0.00 0.00 0.00 0.00 0.00 0.00 0.00 0.00 0.00 0.00 0.00 0.01
0.15 0.17 0.21 0.28 0.32 0.34 0.37 0.45 0.52 0.45 0.33 0.34 0.27 0.26 0.27 0.22 0.22 0.15 0.08 0.05 0.04 0.04 0.03 0.02 0.01 0.01 0.01 0.00 0.00 0.00 0.00 0.00 0.00 0.00 0.00 0.00 0.00 0.01
0.10 0.11 0.15 0.21 0.26 0.31 0.34 0.39 0.45 0.52 0.47 0.46 0.45 0.36 0.33 0.32 0.32 0.29 0.18 0.12 0.10 0.15 0.17 0.09 0.04 0.03 0.02 0.02 0.01 0.00 0.00 0.00 0.00 0.00 0.00 0.00 0.00 0.00
0.15 0.13 0.15 0.17 0.20 0.25 0.33 0.41 0.46 0.51 0.51 0.46 0.51 0.53 0.43 0.40 0.32 0.26 0.19 0.19 0.19 0.18 0.25 0.23 0.18 0.13 0.10 0.09 0.07 0.05 0.03 0.02 0.02 0.02 0.01 0.01 0.00 0.00
0.21 0.17 0.15 0.14 0.18 0.29 0.40 0.48 0.51 0.51 0.53 0.53 0.55 0.58 0.51 0.41 0.30 0.25 0.27 0.27 0.25 0.20 0.16 0.19 0.21 0.18 0.15 0.14 0.13 0.11 0.10 0.07 0.05 0.04 0.03 0.02 0.01 0.01
0.19 0.16 0.16 0.14 0.14 0.23 0.34 0.51 0.55 0.56 0.57 0.58 0.58 0.53 0.46 0.36 0.30 0.26 0.25 0.31 0.27 0.21 0.17 0.15 0.16 0.17 0.19 0.20 0.20 0.19 0.16 0.14 0.11 0.09 0.07 0.06 0.04 0.03
0.17 0.15 0.16 0.13 0.10 0.12 0.14 0.27 0.39 0.48 0.55 0.54 0.55 0.51 0.47 0.41 0.37 0.29 0.22 0.20 0.22 0.23 0.20 0.23 0.22 0.24 0.29 0.29 0.34 0.38 0.34 0.28 0.23 0.18 0.15 0.12 0.11 0.10
0.19 0.19 0.19 0.16 0.14 0.15 0.14 0.18 0.20 0.23 0.28 0.34 0.40 0.42 0.44 0.41 0.36 0.29 0.22 0.18 0.21 0.21 0.16 0.19 0.21 0.22 0.26 0.25 0.24 0.25 0.26 0.24 0.21 0.19 0.17 0.16 0.14 0.12
0.25 0.20 0.21 0.21 0.23 0.28 0.22 0.22 0.22 0.23 0.22 0.19 0.23 0.28 0.29 0.32 0.32 0.34 0.31 0.22 0.15 0.12 0.09 0.10 0.13 0.14 0.13 0.14 0.14 0.13 0.13 0.14 0.14 0.13 0.13 0.12 0.11 0.11
0.29 0.26 0.27 0.30 0.42 0.40 0.29 0.27 0.28 0.28 0.27 0.28 0.32 0.32 0.32 0.34 0.37 0.40 0.36 0.29 0.24 0.22 0.20 0.15 0.12 0.11 0.08 0.08 0.08 0.08 0.07 0.07 0.07 0.07 0.07 0.08 0.09 0.09
0.35 0.33 0.43 0.39 0.43 0.36 0.26 0.30 0.34 0.34 0.33 0.37 0.36 0.35 0.31 0.32 0.37 0.38 0.43 0.44 0.40 0.34 0.28 0.21 0.19 0.18 0.16 0.12 0.08 0.05 0.04 0.05 0.05 0.05 0.06 0.06 0.07 0.07
0.30 0.29 0.26 0.29 0.25 0.24 0.23 0.25 0.36 0.32 0.32 0.36 0.29 0.25 0.22 0.23 0.26 0.29 0.36 0.39 0.41 0.41 0.36 0.28 0.24 0.23 0.19 0.16 0.12 0.08 0.05 0.04 0.04 0.04 0.05 0.06 0.06 0.05
0.14 0.16 0.16 0.17 0.17 0.20 0.18 0.24 0.27 0.21 0.25 0.28 0.23 0.19 0.19 0.18 0.17 0.18 0.21 0.26 0.31 0.36 0.36 0.27 0.22 0.19 0.17 0.14 0.12 0.09 0.06 0.05 0.04 0.04 0.04 0.05 0.04 0.04
0.06 0.09 0.13 0.18 0.15 0.15 0.17 0.20 0.18 0.18 0.25 0.25 0.23 0.19 0.14 0.13 0.10 0.11 0.13 0.15 0.18 0.19 0.22 0.27 0.28 0.24 0.18 0.13 0.09 0.07 0.07 0.06 0.05 0.04 0.05 0.05 0.04 0.03
0.06 0.12 0.17 0.21 0.17 0.18 0.17 0.17 0.19 0.22 0.24 0.23 0.21 0.16 0.10 0.09 0.10 0.10 0.11 0.10 0.11 0.12 0.14 0.18 0.31 0.41 0.41 0.35 0.28 0.22 0.19 0.16 0.14 0.13 0.11 0.08 0.07 0.07
0.12 0.25 0.33 0.30 0.25 0.21 0.20 0.22 0.25 0.23 0.22 0.21 0.20 0.15 0.11 0.10 0.08 0.06 0.06 0.07 0.09 0.10 0.11 0.09 0.09 0.14 0.23 0.29 0.33 0.34 0.34 0.33 0.31 0.30 0.25 0.17 0.13 0.14
0.26 0.41 0.48 0.52 0.48 0.41 0.33 0.31 0.31 0.29 0.26 0.24 0.22 0.18 0.14 0.12 0.10 0.08 0.07 0.07 0.08 0.09 0.09 0.07 0.04 0.05 0.08 0.12 0.13 0.18 0.22 0.22 0.24 0.27 0.27 0.21 0.16 0.17
0.60 0.64 0.64 0.65 0.64 0.53 0.41 0.33 0.26 0.23 0.22 0.20 0.17 0.14 0.10 0.08 0.06 0.05 0.05 0.05 0.05 0.05 0.04 0.04 0.04 0.06 0.08 0.10 0.11 0.09 0.13 0.16 0.18 0.19 0.19 0.18 0.15 0.15
0.71 0.72 0.78 0.74 0.68 0.50 0.34 0.24 0.16 0.13 0.12 0.10 0.07 0.05 0.03 0.03 0.02 0.02 0.03 0.02 0.02 0.02 0.03 0.05 0.06 0.07 0.09 0.11 0.11 0.09 0.10 0.15 0.18 0.18 0.17 0.16 0.14 0.14
0.38 0.44 0.47 0.44 0.38 0.27 0.16 0.11 0.05 0.02 0.02 0.01 0.01 0.01 0.01 0.01 0.02 0.02 0.03 0.02 0.03 0.04 0.04 0.04 0.05 0.05 0.05 0.08 0.10 0.09 0.09 0.12 0.13 0.12 0.13 0.15 0.16 0.16
0.12 0.13 0.12 0.11 0.09 0.06 0.03 0.03 0.03 0.01 0.01 0.00 0.01 0.01 0.02 0.02 0.02 0.03 0.04 0.04 0.04 0.04 0.04 0.04 0.03 0.04 0.05 0.07 0.09 0.08 0.06 0.05 0.08 0.13 0.14 0.14 0.14 0.15
0.03 0.04 0.04 0.03 0.02 0.01 0.01 0.01 0.01 0.01 0.00 0.00 0.01 0.01 0.02 0.03 0.03 0.03 0.03 0.03 0.04 0.04 0.03 0.03 0.03 0.03 0.04 0.06 0.07 0.07 0.06 0.05 0.06 0.09 0.17 0.26 0.23 0.16

GEFSNE_prec_meanprecacc_042.txt.gz
Total_Precipitation_Accumulation
0.48 0.57 0.56 0.59 0.64 0.63 0.67 0.64 0.54 0.44 0.39 0.29 0.17 0.09 0.06 0.04 0.04 0.02 0.02 0.03 0.04 0.04 0.03 0.02 0.01 0.01 0.02 0.01 0.02 0.02 0.02 0.01 0.01 0.01 0.01 0.01 0.01 0.01
0.39 0.44 0.47 0.48 0.49 0.48 0.54 0.64 0.58 0.43 0.37 0.34 0.25 0.18 0.16 0.11 0.11 0.08 0.05 0.04 0.03 0.03 0.02 0.02 0.02 0.01 0.01 0.01 0.01 0.01 0.01 0.01 0.01 0.01 0.01 0.00 0.00 0.01
0.21 0.23 0.29 0.39 0.45 0.47 0.49 0.56 0.62 0.54 0.41 0.42 0.31 0.29 0.29 0.24 0.22 0.15 0.08 0.06 0.05 0.04 0.03 0.02 0.02 0.01 0.01 0.01 0.01 0.01 0.01 0.00 0.00 0.01 0.01 0.01 0.01 0.01
0.16 0.15 0.18 0.25 0.31 0.37 0.42 0.46 0.52 0.58 0.54 0.53 0.51 0.39 0.36 0.33 0.33 0.29 0.19 0.13 0.12 0.16 0.17 0.09 0.05 0.03 0.03 0.02 0.01 0.01 0.00 0.00 0.01 0.01 0.02 0.02 0.01 0.01
0.22 0.20 0.20 0.22 0.25 0.31 0.40 0.49 0.52 0.56 0.57 0.52 0.55 0.55 0.44 0.41 0.33 0.26 0.20 0.21 0.21 0.20 0.27 0.25 0.19 0.14 0.11 0.10 0.08 0.05 0.04 0.04 0.05 0.05 0.04 0.03 0.02 0.02
0.30 0.25 0.20 0.20 0.26 0.38 0.50 0.57 0.58 0.57 0.57 0.57 0.58 0.60 0.52 0.42 0.32 0.28 0.30 0.32 0.29 0.23 0.18 0.21 0.22 0.19 0.16 0.15 0.14 0.13 0.12 0.10 0.09 0.08 0.07 0.08 0.07 0.07
0.31 0.26 0.25 0.23 0.23 0.32 0.43 0.60 0.61 0.62 0.60 0.61 0.60 0.55 0.47 0.38 0.32 0.30 0.29 0.35 0.30 0.25 0.22 0.18 0.20 0.20 0.21 0.21 0.21 0.21 0.18 0.17 0.15 0.13 0.12 0.11 0.11 0.12
0.31 0.29 0.28 0.25 0.21 0.20 0.20 0.33 0.45 0.53 0.60 0.58 0.57 0.53 0.49 0.42 0.39 0.32 0.25 0.24 0.24 0.26 0.22 0.24 0.24 0.25 0.30 0.30 0.35 0.39 0.35 0.30 0.25 0.20 0.18 0.16 0.16 0.16
0.29 0.33 0.34 0.29 0.29 0.30 0.22 0.22 0.23 0.26 0.31 0.36 0.42 0.45 0.46 0.42 0.37 0.31 0.25 0.22 0.23 0.22 0.18 0.20 0.22 0.23 0.26 0.26 0.24 0.25 0.26 0.25 0.22 0.20 0.19 0.18 0.18 0.17
0.33 0.31 0.35 0.36 0.38 0.42 0.31 0.30 0.27 0.25 0.23 0.20 0.25 0.30 0.30 0.33 0.34 0.36 0.34 0.23 0.16 0.13 0.11 0.12 0.14 0.15 0.14 0.14 0.15 0.13 0.13 0.14 0.14 0.15 0.14 0.14 0.13 0.12
0.34 0.34 0.38 0.40 0.54 0.52 0.42 0.38 0.36 0.31 0.29 0.30 0.34 0.33 0.33 0.36 0.38 0.41 0.36 0.29 0.25 0.23 0.21 0.16 0.13 0.11 0.09 0.08 0.08 0.08 0.07 0.07 0.07 0.07 0.07 0.08 0.09 0.10
0.38 0.38 0.51 0.47 0.52 0.45 0.37 0.42 0.46 0.38 0.34 0.38 0.37 0.35 0.32 0.33 0.39 0.40 0.45 0.46 0.41 0.35 0.28 0.22 0.19 0.19 0.17 0.13 0.08 0.06 0.05 0.05 0.05 0.05 0.06 0.06 0.07 0.07
0.33 0.34 0.30 0.36 0.32 0.30 0.31 0.34 0.46 0.38 0.35 0.37 0.30 0.25 0.22 0.23 0.27 0.29 0.37 0.41 0.43 0.42 0.36 0.29 0.26 0.24 0.20 0.17 0.12 0.08 0.05 0.04 0.04 0.04 0.05 0.06 0.06 0.05
0.17 0.22 0.21 0.22 0.22 0.25 0.23 0.30 0.35 0.29 0.28 0.30 0.25 0.21 0.20 0.19 0.17 0.18 0.21 0.26 0.31 0.37 0.36 0.28 0.23 0.20 0.18 0.15 0.13 0.10 0.07 0.05 0.04 0.04 0.04 0.05 0.04 0.04
0.08 0.13 0.17 0.21 0.18 0.18 0.21 0.28 0.25 0.24 0.30 0.29 0.25 0.21 0.15 0.13 0.11 0.11 0.13 0.15 0.18 0.19 0.22 0.27 0.29 0.25 0.19 0.14 0.09 0.07 0.07 0.07 0.05 0.04 0.05 0.05 0.04 0.03
0.07 0.14 0.20 0.25 0.20 0.20 0.21 0.22 0.25 0.29 0.32 0.29 0.24 0.17 0.11 0.10 0.10 0.10 0.11 0.10 0.11 0.12 0.14 0.19 0.31 0.41 0.41 0.35 0.29 0.22 0.19 0.16 0.14 0.13 0.11 0.08 0.07 0.07
0.13 0.26 0.35 0.33 0.29 0.24 0.23 0.25 0.27 0.27 0.26 0.26 0.23 0.16 0.13 0.11 0.09 0.06 0.06 0.07 0.09 0.10 0.11 0.09 0.09 0.14 0.23 0.29 0.33 0.34 0.34 0.33 0.31 0.30 0.25 0.17 0.13 0.14
0.27 0.42 0.50 0.54 0.51 0.44 0.37 0.35 0.33 0.31 0.28 0.26 0.24 0.19 0.16 0.13 0.10 0.08 0.07 0.07 0.08 0.09 0.09 0.07 0.04 0.05 0.08 0.12 0.13 0.18 0.22 0.22 0.24 0.27 0.27 0.22 0.16 0.17
0.60 0.64 0.65 0.66 0.65 0.54 0.43 0.35 0.27 0.24 0.22 0.21 0.19 0.15 0.12 0.09 0.07 0.05 0.05 0.05 0.05 0.05 0.04 0.04 0.04 0.06 0.08 0.10 0.11 0.09 0.13 0.16 0.18 0.19 0.19 0.18 0.15 0.15
0.71 0.72 0.78 0.74 0.68 0.50 0.34 0.25 0.17 0.13 0.12 0.11 0.08 0.06 0.04 0.03 0.03 0.02 0.03 0.02 0.02 0.02 0.03 0.05 0.06 0.07 0.09 0.11 0.11 0.09 0.10 0.15 0.18 0.18 0.17 0.16 0.14 0.14
0.38 0.44 0.47 0.44 0.38 0.27 0.16 0.11 0.06 0.03 0.02 0.02 0.02 0.01 0.01 0.01 0.02 0.02 0.03 0.02 0.03 0.04 0.04 0.04 0.05 0.05 0.05 0.08 0.10 0.09 0.09 0.12 0.13 0.12 0.13 0.15 0.16 0.16
0.12 0.13 0.12 0.11 0.09 0.06 0.03 0.03 0.03 0.01 0.01 0.00 0.01 0.01 0.02 0.02 0.02 0.03 0.04 0.04 0.04 0.04 0.04 0.04 0.03 0.04 0.05 0.07 0.09 0.08 0.06 0.05 0.08 0.13 0.14 0.14 0.14 0.15
0.03 0.04 0.04 0.03 0.02 0.01 0.01 0.01 0.01 0.01 0.00 0.00 0.01 0.01 0.02 0.03 0.03 0.03 0.03 0.03 0.04 0.04 0.03 0.03 0.03 0.03 0.04 0.06 0.07 0.07 0.06 0.05 0.06 0.09 0.17 0.26 0.23 0.16

GEFSNE_prec_meanprecacc_048.txt.gz
Total_Precipitation_Accumulation
0.73 0.78 0.75 0.75 0.79 0.78 0.81 0.78 0.68 0.57 0.52 0.40 0.24 0.13 0.10 0.08 0.09 0.07 0.05 0.05 0.04 0.04 0.03 0.02 0.02 0.02 0.03 0.02 0.02 0.03 0.03 0.03 0.03 0.02 0.02 0.02 0.01 0.02
0.62 0.67 0.69 0.69 0.67 0.63 0.69 0.78 0.72 0.56 0.48 0.43 0.33 0.24 0.21 0.14 0.15 0.11 0.09 0.10 0.06 0.05 0.03 0.03 0.02 0.02 0.02 0.02 0.02 0.01 0.01 0.01 0.01 0.02 0.02 0.01 0.01 0.01
0.35 0.37 0.45 0.54 0.59 0.60 0.61 0.68 0.74 0.66 0.52 0.52 0.39 0.36 0.37 0.29 0.26 0.18 0.12 0.11 0.09 0.07 0.05 0.04 0.03 0.03 0.03 0.03 0.02 0.01 0.01 0.01 0.01 0.02 0.02 0.02 0.02 0.02
0.26 0.23 0.25 0.32 0.39 0.47 0.54 0.58 0.63 0.69 0.64 0.63 0.59 0.47 0.44 0.41 0.40 0.35 0.24 0.20 0.19 0.19 0.19 0.11 0.07 0.04 0.04 0.03 0.02 0.01 0.01 0.01 0.01 0.02 0.02 0.02 0.03 0.02
0.28 0.27 0.27 0.28 0.31 0.37 0.48 0.58 0.61 0.64 0.66 0.61 0.65 0.64 0.51 0.47 0.41 0.35 0.29 0.31 0.28 0.23 0.29 0.26 0.21 0.15 0.12 0.10 0.08 0.05 0.04 0.04 0.05 0.05 0.04 0.04 0.03 0.03
0.36 0.32 0.27 0.26 0.32 0.44 0.55 0.63 0.64 0.63 0.65 0.66 0.68 0.69 0.59 0.49 0.43 0.41 0.43 0.46 0.39 0.28 0.22 0.24 0.24 0.21 0.18 0.16 0.15 0.13 0.12 0.10 0.09 0.08 0.08 0.08 0.08 0.07
0.39 0.34 0.31 0.31 0.29 0.37 0.48 0.67 0.68 0.71 0.70 0.71 0.70 0.63 0.54 0.44 0.42 0.45 0.44 0.49 0.42 0.37 0.32 0.26 0.27 0.26 0.24 0.23 0.22 0.21 0.19 0.17 0.16 0.13 0.13 0.12 0.11 0.13
0.42 0.38 0.36 0.32 0.28 0.26 0.26 0.40 0.54 0.64 0.71 0.68 0.67 0.63 0.57 0.50 0.52 0.47 0.39 0.36 0.33 0.38 0.33 0.33 0.30 0.29 0.32 0.31 0.36 0.40 0.35 0.30 0.25 0.21 0.18 0.17 0.17 0.17
0.39 0.46 0.48 0.41 0.40 0.40 0.31 0.29 0.31 0.35 0.42 0.48 0.55 0.56 0.56 0.51 0.48 0.45 0.41 0.37 0.31 0.29 0.25 0.25 0.25 0.25 0.27 0.26 0.25 0.26 0.26 0.25 0.22 0.21 0.20 0.19 0.19 0.18
0.40 0.41 0.50 0.52 0.51 0.55 0.48 0.49 0.40 0.32 0.31 0.31 0.37 0.39 0.37 0.42 0.46 0.52 0.49 0.34 0.23 0.19 0.16 0.14 0.16 0.16 0.14 0.15 0.15 0.13 0.13 0.14 0.14 0.15 0.15 0.14 0.14 0.13
0.39 0.42 0.50 0.56 0.68 0.68 0.65 0.62 0.49 0.38 0.38 0.43 0.44 0.41 0.41 0.43 0.45 0.47 0.44 0.37 0.30 0.27 0.23 0.17 0.14 0.12 0.09 0.09 0.08 0.08 0.07 0.07 0.07 0.07 0.07 0.08 0.09 0.10
0.44 0.44 0.60 0.59 0.64 0.61 0.58 0.63 0.60 0.45 0.37 0.41 0.40 0.38 0.34 0.37 0.44 0.48 0.54 0.54 0.45 0.37 0.30 0.23 0.21 0.20 0.18 0.14 0.09 0.06 0.05 0.05 0.05 0.05 0.06 0.06 0.07 0.07
0.40 0.41 0.36 0.44 0.43 0.45 0.48 0.49 0.60 0.46 0.41 0.42 0.35 0.28 0.24 0.26 0.30 0.34 0.43 0.50 0.50 0.44 0.38 0.31 0.28 0.27 0.21 0.17 0.13 0.09 0.05 0.04 0.04 0.05 0.05 0.06 0.06 0.05
0.24 0.28 0.25 0.29 0.32 0.37 0.35 0.41 0.49 0.43 0.38 0.40 0.32 0.25 0.24 0.21 0.19 0.20 0.23 0.29 0.35 0.38 0.37 0.30 0.27 0.24 0.19 0.15 0.13 0.10 0.07 0.05 0.04 0.04 0.04 0.05 0.04 0.04
0.13 0.19 0.21 0.26 0.24 0.24 0.29 0.37 0.37 0.41 0.47 0.42 0.35 0.25 0.19 0.16 0.11 0.11 0.13 0.16 0.19 0.20 0.23 0.29 0.32 0.28 0.21 0.15 0.09 0.07 0.07 0.07 0.05 0.04 0.05 0.05 0.04 0.03
0.11 0.17 0.22 0.28 0.25 0.24 0.26 0.30 0.34 0.40 0.48 0.42 0.31 0.21 0.14 0.12 0.10 0.10 0.11 0.10 0.11 0.12 0.14 0.19 0.31 0.42 0.42 0.36 0.29 0.22 0.19 0.16 0.14 0.13 0.11 0.08 0.07 0.07
0.17 0.30 0.39 0.38 0.35 0.31 0.29 0.34 0.35 0.33 0.35 0.35 0.30 0.20 0.15 0.12 0.09 0.07 0.07 0.08 0.09 0.10 0.11 0.09 0.09 0.15 0.23 0.29 0.33 0.34 0.34 0.33 0.31 0.30 0.25 0.17 0.13 0.14
0.33 0.49 0.56 0.60 0.58 0.50 0.45 0.43 0.41 0.37 0.34 0.34 0.31 0.23 0.18 0.14 0.11 0.08 0.07 0.08 0.08 0.09 0.09 0.07 0.04 0.05 0.08 0.12 0.13 0.18 0.22 0.22 0.24 0.27 0.27 0.22 0.16 0.17
0.65 0.68 0.67 0.68 0.68 0.57 0.47 0.41 0.32 0.26 0.26 0.27 0.24 0.21 0.16 0.10 0.07 0.06 0.05 0.05 0.05 0.05 0.04 0.04 0.05 0.06 0.08 0.10 0.11 0.09 0.13 0.16 0.18 0.19 0.19 0.18 0.15 0.15
0.73 0.73 0.79 0.75 0.69 0.52 0.36 0.28 0.19 0.15 0.16 0.14 0.12 0.09 0.07 0.05 0.03 0.03 0.03 0.02 0.02 0.02 0.03 0.05 0.06 0.07 0.10 0.11 0.11 0.09 0.10 0.15 0.18 0.18 0.17 0.16 0.14 0.14
0.39 0.44 0.47 0.45 0.39 0.28 0.18 0.13 0.07 0.05 0.06 0.05 0.05 0.03 0.03 0.02 0.03 0.03 0.03 0.03 0.03 0.04 0.04 0.04 0.05 0.05 0.05 0.08 0.10 0.09 0.09 0.12 0.13 0.12 0.13 0.15 0.16 0.16
0.12 0.13 0.12 0.11 0.09 0.07 0.04 0.04 0.04 0.03 0.03 0.02 0.02 0.02 0.02 0.02 0.02 0.03 0.04 0.04 0.05 0.04 0.04 0.04 0.03 0.04 0.05 0.07 0.09 0.08 0.06 0.05 0.08 0.13 0.14 0.14 0.14 0.15
0.03 0.04 0.04 0.03 0.02 0.01 0.01 0.02 0.02 0.02 0.01 0.02 0.01 0.02 0.02 0.03 0.03 0.03 0.03 0.04 0.04 0.04 0.03 0.03 0.03 0.03 0.04 0.06 0.07 0.07 0.06 0.05 0.06 0.09 0.17 0.26 0.23 0.16

GEFSNE_prec_meanprecacc_054.txt.gz
Total_Precipitation_Accumulation
1.13 1.15 1.10 1.08 1.04 0.95 0.93 0.88 0.76 0.63 0.56 0.44 0.33 0.26 0.24 0.21 0.26 0.24 0.18 0.13 0.10 0.08 0.06 0.05 0.06 0.05 0.05 0.04 0.04 0.04 0.04 0.04 0.05 0.05 0.05 0.05 0.04 0.04
1.08 1.09 1.05 1.03 0.97 0.88 0.86 0.90 0.81 0.64 0.54 0.49 0.38 0.31 0.29 0.25 0.27 0.24 0.22 0.20 0.12 0.09 0.06 0.06 0.07 0.06 0.05 0.03 0.02 0.02 0.02 0.02 0.02 0.03 0.04 0.03 0.03 0.03
0.66 0.67 0.77 0.87 0.90 0.87 0.82 0.83 0.85 0.74 0.59 0.58 0.44 0.40 0.41 0.34 0.31 0.24 0.21 0.21 0.18 0.13 0.11 0.09 0.07 0.06 0.05 0.04 0.03 0.02 0.02 0.01 0.01 0.02 0.03 0.04 0.04 0.04
0.55 0.50 0.52 0.59 0.64 0.72 0.75 0.74 0.76 0.79 0.72 0.70 0.66 0.53 0.48 0.44 0.44 0.40 0.31 0.29 0.29 0.28 0.27 0.18 0.12 0.08 0.07 0.05 0.04 0.02 0.01 0.01 0.01 0.02 0.02 0.03 0.04 0.04
0.49 0.47 0.46 0.45 0.49 0.55 0.63 0.70 0.72 0.74 0.73 0.67 0.72 0.71 0.57 0.51 0.46 0.41 0.37 0.40 0.38 0.34 0.39 0.35 0.27 0.19 0.15 0.12 0.09 0.06 0.05 0.04 0.05 0.05 0.05 0.04 0.04 0.04
0.51 0.48 0.42 0.38 0.43 0.58 0.67 0.70 0.69 0.69 0.71 0.71 0.73 0.74 0.65 0.53 0.47 0.47 0.51 0.55 0.48 0.38 0.31 0.32 0.30 0.24 0.20 0.17 0.16 0.14 0.12 0.10 0.09 0.08 0.08 0.08 0.08 0.08
0.46 0.43 0.40 0.39 0.37 0.46 0.56 0.73 0.72 0.74 0.74 0.75 0.74 0.67 0.58 0.47 0.46 0.50 0.51 0.57 0.50 0.44 0.38 0.31 0.31 0.28 0.25 0.23 0.23 0.22 0.19 0.18 0.16 0.14 0.13 0.12 0.12 0.13
0.46 0.45 0.43 0.38 0.33 0.32 0.31 0.45 0.58 0.67 0.74 0.71 0.70 0.66 0.61 0.53 0.56 0.52 0.44 0.41 0.41 0.46 0.38 0.37 0.33 0.31 0.34 0.32 0.37 0.41 0.36 0.30 0.25 0.21 0.18 0.17 0.17 0.18
0.43 0.48 0.52 0.47 0.45 0.45 0.35 0.33 0.34 0.38 0.45 0.50 0.57 0.58 0.58 0.54 0.52 0.49 0.45 0.42 0.36 0.34 0.29 0.29 0.29 0.27 0.28 0.27 0.26 0.27 0.27 0.26 0.23 0.21 0.20 0.19 0.19 0.19
0.44 0.45 0.53 0.55 0.57 0.62 0.54 0.54 0.44 0.35 0.35 0.35 0.41 0.43 0.40 0.45 0.50 0.58 0.56 0.41 0.30 0.26 0.21 0.17 0.18 0.17 0.15 0.15 0.16 0.14 0.14 0.14 0.15 0.15 0.15 0.14 0.14 0.14
0.41 0.45 0.53 0.59 0.74 0.77 0.75 0.69 0.54 0.42 0.43 0.49 0.49 0.46 0.45 0.47 0.48 0.52 0.51 0.44 0.36 0.34 0.27 0.18 0.15 0.13 0.10 0.09 0.09 0.08 0.07 0.07 0.07 0.07 0.07 0.08 0.09 0.10
0.47 0.47 0.64 0.65 0.72 0.70 0.67 0.72 0.66 0.50 0.42 0.45 0.45 0.44 0.40 0.43 0.50 0.53 0.59 0.60 0.49 0.40 0.31 0.23 0.21 0.20 0.18 0.14 0.09 0.06 0.05 0.05 0.05 0.05 0.06 0.06 0.07 0.07
0.43 0.44 0.40 0.52 0.52 0.55 0.58 0.59 0.70 0.54 0.46 0.46 0.39 0.34 0.30 0.30 0.35 0.38 0.48 0.54 0.53 0.46 0.38 0.31 0.29 0.27 0.21 0.17 0.13 0.09 0.05 0.04 0.04 0.05 0.05 0.06 0.06 0.05
0.28 0.32 0.31 0.38 0.43 0.47 0.44 0.52 0.60 0.52 0.43 0.44 0.37 0.29 0.28 0.24 0.22 0.23 0.27 0.32 0.38 0.40 0.38 0.31 0.27 0.24 0.19 0.15 0.13 0.10 0.07 0.05 0.04 0.04 0.04 0.05 0.04 0.04
0.17 0.24 0.29 0.35 0.34 0.34 0.39 0.48 0.47 0.48 0.52 0.46 0.40 0.30 0.23 0.19 0.13 0.13 0.17 0.18 0.20 0.21 0.24 0.29 0.32 0.28 0.21 0.15 0.09 0.07 0.07 0.07 0.05 0.04 0.05 0.05 0.04 0.03
0.14 0.21 0.29 0.38 0.35 0.34 0.36 0.41 0.43 0.48 0.53 0.46 0.36 0.26 0.17 0.14 0.11 0.11 0.13 0.11 0.12 0.13 0.14 0.19 0.32 0.42 0.42 0.36 0.29 0.22 0.19 0.16 0.14 0.13 0.11 0.08 0.07 0.07
0.19 0.33 0.45 0.47 0.44 0.39 0.37 0.41 0.40 0.37 0.38 0.37 0.35 0.26 0.17 0.13 0.10 0.08 0.08 0.08 0.09 0.10 0.11 0.09 0.09 0.15 0.23 0.29 0.33 0.34 0.34 0.33 0.31 0.30 0.25 0.17 0.13 0.14
0.35 0.52 0.60 0.66 0.63 0.55 0.50 0.47 0.44 0.39 0.36 0.35 0.35 0.28 0.19 0.14 0.11 0.09 0.08 0.08 0.09 0.09 0.09 0.07 0.04 0.05 0.08 0.12 0.13 0.18 0.22 0.22 0.24 0.27 0.27 0.22 0.16 0.17
0.66 0.69 0.69 0.71 0.70 0.60 0.49 0.43 0.34 0.27 0.27 0.27 0.26 0.22 0.17 0.11 0.07 0.06 0.05 0.05 0.05 0.05 0.04 0.04 0.05 0.06 0.08 0.10 0.11 0.09 0.13 0.16 0.18 0.19 0.19 0.18 0.15 0.15
0.73 0.74 0.79 0.76 0.70 0.54 0.38 0.30 0.20 0.16 0.16 0.15 0.12 0.09 0.07 0.05 0.03 0.03 0.03 0.02 0.02 0.02 0.03 0.05 0.06 0.07 0.10 0.11 0.11 0.09 0.10 0.15 0.18 0.18 0.17 0.16 0.14 0.14
0.39 0.44 0.47 0.45 0.39 0.28 0.18 0.14 0.08 0.06 0.06 0.05 0.05 0.04 0.03 0.02 0.03 0.03 0.03 0.03 0.03 0.04 0.04 0.04 0.05 0.05 0.05 0.08 0.10 0.09 0.09 0.12 0.13 0.12 0.13 0.15 0.16 0.16
0.12 0.13 0.12 0.11 0.09 0.07 0.05 0.04 0.04 0.03 0.03 0.02 0.02 0.02 0.03 0.03 0.02 0.03 0.04 0.04 0.05 0.04 0.04 0.04 0.03 0.04 0.05 0.07 0.09 0.08 0.06 0.05 0.08 0.13 0.14 0.14 0.14 0.15
0.03 0.04 0.04 0.03 0.02 0.01 0.01 0.02 0.02 0.02 0.01 0.02 0.01 0.02 0.02 0.03 0.03 0.03 0.03 0.04 0.04 0.04 0.03 0.03 0.03 0.03 0.04 0.06 0.07 0.07 0.06 0.05 0.06 0.09 0.17 0.26 0.23 0.16

GEFSNE_prec_meanprecacc_060.txt.gz
Total_Precipitation_Accumulation
1.29 1.35 1.35 1.36 1.34 1.20 1.14 1.05 0.89 0.72 0.61 0.49 0.38 0.30 0.30 0.30 0.36 0.35 0.27 0.23 0.18 0.16 0.12 0.09 0.10 0.09 0.09 0.09 0.08 0.07 0.07 0.07 0.07 0.07 0.07 0.07 0.07 0.06
1.26 1.33 1.30 1.28 1.24 1.15 1.10 1.09 0.97 0.76 0.63 0.55 0.44 0.37 0.38 0.35 0.39 0.38 0.36 0.34 0.22 0.17 0.13 0.12 0.11 0.09 0.08 0.06 0.04 0.03 0.03 0.03 0.03 0.04 0.04 0.04 0.04 0.04
0.80 0.86 1.03 1.16 1.16 1.15 1.13 1.12 1.08 0.92 0.73 0.69 0.52 0.48 0.50 0.45 0.44 0.39 0.38 0.39 0.32 0.25 0.20 0.17 0.14 0.11 0.09 0.08 0.05 0.03 0.02 0.02 0.02 0.03 0.03 0.04 0.05 0.05
0.66 0.65 0.71 0.85 0.94 1.01 1.07 1.07 1.08 1.04 0.90 0.87 0.80 0.63 0.58 0.54 0.56 0.55 0.47 0.46 0.47 0.45 0.39 0.29 0.21 0.16 0.12 0.09 0.06 0.03 0.02 0.01 0.02 0.02 0.03 0.03 0.05 0.06
0.62 0.63 0.65 0.67 0.75 0.81 0.92 1.00 1.04 1.07 1.00 0.86 0.91 0.87 0.71 0.64 0.58 0.55 0.53 0.57 0.55 0.51 0.53 0.49 0.40 0.30 0.23 0.17 0.13 0.08 0.05 0.04 0.05 0.05 0.05 0.05 0.05 0.05
0.62 0.65 0.63 0.61 0.68 0.84 0.95 1.00 0.99 0.97 0.98 0.94 0.94 0.93 0.81 0.67 0.60 0.59 0.64 0.68 0.65 0.53 0.46 0.47 0.46 0.40 0.32 0.26 0.20 0.16 0.13 0.10 0.09 0.08 0.08 0.08 0.08 0.09
0.53 0.54 0.58 0.62 0.63 0.71 0.83 0.99 0.96 0.96 0.95 0.95 0.92 0.83 0.71 0.60 0.59 0.61 0.62 0.69 0.63 0.60 0.55 0.48 0.45 0.40 0.35 0.30 0.26 0.24 0.20 0.18 0.16 0.14 0.13 0.13 0.12 0.14
0.52 0.56 0.55 0.52 0.51 0.52 0.52 0.68 0.79 0.87 0.92 0.88 0.85 0.78 0.71 0.63 0.67 0.63 0.53 0.51 0.53 0.58 0.49 0.52 0.46 0.42 0.42 0.38 0.40 0.42 0.37 0.31 0.26 0.21 0.19 0.18 0.17 0.18
0.47 0.56 0.63 0.57 0.57 0.61 0.53 0.52 0.54 0.57 0.63 0.67 0.71 0.68 0.66 0.60 0.60 0.59 0.54 0.49 0.42 0.41 0.35 0.38 0.39 0.36 0.35 0.32 0.29 0.28 0.28 0.26 0.23 0.21 0.20 0.19 0.19 0.19
0.50 0.51 0.60 0.63 0.65 0.74 0.69 0.68 0.58 0.49 0.47 0.46 0.53 0.53 0.48 0.53 0.57 0.65 0.65 0.49 0.37 0.31 0.25 0.23 0.24 0.23 0.20 0.19 0.18 0.15 0.14 0.15 0.16 0.16 0.15 0.15 0.14 0.14
0.46 0.50 0.58 0.64 0.80 0.85 0.83 0.79 0.65 0.52 0.52 0.57 0.57 0.56 0.54 0.55 0.55 0.58 0.57 0.49 0.42 0.39 0.31 0.22 0.18 0.16 0.13 0.11 0.10 0.09 0.08 0.08 0.08 0.08 0.08 0.08 0.09 0.10
0.49 0.51 0.69 0.70 0.78 0.77 0.74 0.79 0.74 0.57 0.48 0.52 0.51 0.50 0.47 0.50 0.58 0.60 0.65 0.65 0.53 0.45 0.35 0.27 0.24 0.22 0.20 0.16 0.10 0.07 0.06 0.06 0.06 0.06 0.06 0.07 0.07 0.07
0.45 0.47 0.44 0.56 0.58 0.63 0.65 0.64 0.77 0.61 0.53 0.52 0.45 0.39 0.36 0.37 0.41 0.45 0.54 0.61 0.58 0.49 0.41 0.34 0.30 0.28 0.22 0.18 0.13 0.09 0.06 0.05 0.05 0.05 0.05 0.06 0.06 0.05
0.30 0.38 0.37 0.43 0.48 0.53 0.50 0.59 0.68 0.59 0.50 0.50 0.41 0.34 0.32 0.29 0.27 0.28 0.32 0.36 0.42 0.43 0.40 0.33 0.29 0.25 0.19 0.15 0.13 0.10 0.07 0.05 0.04 0.05 0.05 0.05 0.04 0.04
0.18 0.30 0.35 0.40 0.38 0.38 0.45 0.55 0.55 0.54 0.57 0.50 0.44 0.35 0.27 0.23 0.17 0.17 0.20 0.21 0.23 0.24 0.26 0.31 0.33 0.29 0.21 0.15 0.09 0.07 0.07 0.07 0.05 0.04 0.05 0.05 0.04 0.03
0.15 0.27 0.38 0.43 0.40 0.39 0.41 0.47 0.50 0.53 0.58 0.50 0.40 0.30 0.21 0.17 0.15 0.14 0.15 0.14 0.15 0.15 0.16 0.20 0.32 0.42 0.42 0.36 0.29 0.22 0.19 0.16 0.14 0.13 0.11 0.08 0.07 0.07
0.22 0.38 0.51 0.52 0.49 0.43 0.41 0.46 0.45 0.40 0.41 0.39 0.37 0.28 0.19 0.16 0.12 0.10 0.10 0.10 0.12 0.12 0.13 0.11 0.10 0.15 0.23 0.29 0.33 0.34 0.34 0.33 0.31 0.30 0.25 0.17 0.13 0.14
0.38 0.55 0.66 0.72 0.67 0.58 0.52 0.49 0.45 0.41 0.38 0.36 0.37 0.29 0.21 0.17 0.13 0.10 0.09 0.09 0.10 0.12 0.12 0.09 0.06 0.06 0.09 0.12 0.13 0.18 0.22 0.22 0.24 0.27 0.27 0.22 0.16 0.17
0.68 0.71 0.72 0.74 0.73 0.61 0.50 0.44 0.34 0.28 0.28 0.29 0.28 0.24 0.18 0.12 0.09 0.07 0.06 0.06 0.06 0.06 0.06 0.05 0.05 0.07 0.09 0.10 0.11 0.09 0.13 0.16 0.18 0.19 0.19 0.18 0.15 0.15
0.73 0.75 0.81 0.78 0.71 0.54 0.38 0.30 0.20 0.16 0.17 0.16 0.13 0.10 0.08 0.06 0.04 0.03 0.04 0.03 0.02 0.02 0.04 0.05 0.06 0.07 0.10 0.11 0.11 0.09 0.10 0.15 0.18 0.18 0.17 0.16 0.14 0.14
0.39 0.44 0.47 0.45 0.39 0.28 0.19 0.14 0.08 0.06 0.06 0.06 0.05 0.04 0.04 0.03 0.03 0.03 0.04 0.03 0.03 0.04 0.04 0.04 0.05 0.05 0.05 0.08 0.10 0.09 0.09 0.12 0.13 0.12 0.13 0.15 0.16 0.16
0.12 0.13 0.12 0.11 0.09 0.07 0.05 0.04 0.04 0.03 0.03 0.02 0.03 0.03 0.03 0.03 0.02 0.03 0.04 0.04 0.05 0.04 0.04 0.04 0.03 0.04 0.05 0.07 0.09 0.08 0.06 0.05 0.08 0.13 0.14 0.14 0.14 0.15
0.03 0.04 0.04 0.03 0.02 0.01 0.01 0.02 0.02 0.02 0.01 0.02 0.01 0.02 0.02 0.03 0.03 0.03 0.03 0.04 0.04 0.04 0.03 0.03 0.03 0.03 0.04 0.06 0.07 0.07 0.06 0.05 0.06 0.09 0.17 0.26 0.23 0.16

GEFSNE_prec_meanprecacc_066.txt.gz
Total_Precipitation_Accumulation
1.37 1.46 1.48 1.52 1.50 1.37 1.30 1.19 1.04 0.85 0.71 0.54 0.41 0.34 0.33 0.33 0.42 0.39 0.30 0.27 0.22 0.21 0.17 0.13 0.13 0.12 0.12 0.11 0.10 0.10 0.10 0.10 0.09 0.08 0.08 0.08 0.07 0.07
1.33 1.41 1.40 1.39 1.39 1.33 1.28 1.25 1.11 0.88 0.74 0.64 0.50 0.41 0.43 0.39 0.46 0.42 0.42 0.42 0.28 0.24 0.20 0.18 0.15 0.12 0.09 0.07 0.06 0.04 0.04 0.04 0.04 0.04 0.05 0.05 0.04 0.05
0.86 0.93 1.11 1.26 1.28 1.28 1.30 1.29 1.24 1.07 0.86 0.80 0.60 0.54 0.57 0.50 0.49 0.45 0.45 0.47 0.39 0.33 0.26 0.23 0.19 0.14 0.12 0.10 0.07 0.05 0.03 0.02 0.02 0.03 0.04 0.05 0.05 0.05
0.72 0.70 0.78 0.95 1.05 1.13 1.20 1.22 1.24 1.20 1.04 0.99 0.91 0.72 0.65 0.61 0.62 0.62 0.56 0.56 0.57 0.57 0.50 0.37 0.28 0.22 0.16 0.12 0.09 0.05 0.03 0.02 0.02 0.03 0.03 0.04 0.05 0.07
0.68 0.69 0.72 0.76 0.87 0.93 1.04 1.13 1.18 1.25 1.18 1.01 1.04 1.00 0.83 0.76 0.70 0.68 0.67 0.71 0.69 0.68 0.71 0.63 0.52 0.40 0.31 0.23 0.17 0.11 0.07 0.05 0.05 0.06 0.05 0.05 0.05 0.06
0.67 0.72 0.71 0.70 0.77 0.96 1.08 1.13 1.14 1.16 1.21 1.16 1.12 1.12 1.00 0.87 0.80 0.79 0.85 0.88 0.84 0.71 0.65 0.64 0.62 0.53 0.43 0.34 0.27 0.21 0.17 0.12 0.10 0.09 0.09 0.09 0.09 0.09
0.59 0.59 0.66 0.72 0.73 0.83 0.96 1.14 1.12 1.15 1.17 1.20 1.15 1.03 0.95 0.84 0.80 0.80 0.82 0.92 0.86 0.80 0.76 0.67 0.59 0.51 0.45 0.40 0.36 0.32 0.26 0.23 0.19 0.16 0.15 0.14 0.13 0.14
0.58 0.61 0.61 0.61 0.60 0.64 0.66 0.85 0.99 1.07 1.11 1.08 1.10 1.00 0.90 0.82 0.86 0.82 0.73 0.74 0.81 0.80 0.66 0.73 0.65 0.58 0.55 0.49 0.51 0.52 0.44 0.36 0.29 0.24 0.20 0.18 0.18 0.18
0.52 0.62 0.68 0.65 0.66 0.73 0.68 0.70 0.75 0.79 0.86 0.90 0.93 0.90 0.86 0.79 0.81 0.81 0.74 0.68 0.61 0.61 0.53 0.60 0.61 0.57 0.53 0.47 0.42 0.38 0.36 0.32 0.27 0.23 0.21 0.20 0.19 0.19
0.54 0.55 0.66 0.70 0.73 0.85 0.84 0.88 0.79 0.70 0.69 0.70 0.79 0.78 0.71 0.76 0.79 0.90 0.87 0.70 0.58 0.53 0.44 0.45 0.46 0.43 0.37 0.34 0.31 0.23 0.20 0.19 0.18 0.17 0.16 0.15 0.15 0.14
0.50 0.55 0.64 0.73 0.87 0.96 1.00 0.96 0.84 0.72 0.74 0.82 0.86 0.84 0.80 0.82 0.83 0.83 0.81 0.72 0.64 0.60 0.48 0.36 0.34 0.32 0.28 0.25 0.22 0.18 0.13 0.11 0.09 0.09 0.09 0.09 0.09 0.10
0.53 0.55 0.76 0.77 0.86 0.89 0.92 0.97 0.93 0.75 0.68 0.73 0.76 0.76 0.72 0.75 0.85 0.84 0.85 0.82 0.69 0.60 0.48 0.35 0.31 0.30 0.31 0.26 0.17 0.12 0.09 0.09 0.07 0.07 0.07 0.07 0.08 0.07
0.49 0.52 0.50 0.64 0.66 0.75 0.81 0.82 0.95 0.80 0.70 0.70 0.66 0.59 0.56 0.60 0.64 0.65 0.72 0.76 0.70 0.59 0.50 0.40 0.36 0.32 0.26 0.23 0.18 0.12 0.08 0.06 0.06 0.06 0.06 0.06 0.06 0.06
0.33 0.44 0.44 0.50 0.55 0.62 0.62 0.74 0.84 0.77 0.68 0.67 0.59 0.50 0.46 0.45 0.46 0.46 0.49 0.51 0.54 0.54 0.47 0.37 0.33 0.28 0.22 0.17 0.15 0.12 0.08 0.06 0.04 0.05 0.05 0.05 0.05 0.04
0.20 0.35 0.41 0.46 0.45 0.46 0.55 0.67 0.68 0.70 0.74 0.64 0.59 0.49 0.40 0.35 0.30 0.32 0.36 0.35 0.34 0.32 0.32 0.34 0.36 0.31 0.23 0.16 0.10 0.08 0.08 0.07 0.05 0.05 0.05 0.05 0.04 0.04
0.17 0.30 0.42 0.48 0.46 0.45 0.49 0.58 0.60 0.67 0.72 0.60 0.50 0.42 0.33 0.29 0.25 0.25 0.27 0.26 0.25 0.22 0.20 0.23 0.35 0.45 0.43 0.37 0.29 0.22 0.19 0.16 0.14 0.13 0.11 0.09 0.07 0.07
0.23 0.39 0.53 0.55 0.53 0.48 0.48 0.54 0.52 0.48 0.50 0.45 0.44 0.38 0.29 0.26 0.21 0.18 0.18 0.16 0.18 0.16 0.15 0.12 0.11 0.16 0.24 0.30 0.34 0.34 0.34 0.33 0.31 0.30 0.25 0.18 0.14 0.14
0.39 0.58 0.68 0.75 0.72 0.63 0.56 0.54 0.49 0.45 0.43 0.41 0.43 0.37 0.28 0.24 0.20 0.15 0.15 0.13 0.13 0.14 0.13 0.10 0.06 0.06 0.09 0.13 0.14 0.18 0.22 0.22 0.24 0.27 0.27 0.22 0.16 0.17
0.69 0.73 0.74 0.76 0.76 0.65 0.53 0.47 0.36 0.31 0.32 0.33 0.33 0.29 0.23 0.17 0.14 0.10 0.09 0.09 0.08 0.08 0.08 0.08 0.08 0.08 0.10 0.11 0.11 0.09 0.13 0.16 0.18 0.19 0.19 0.18 0.15 0.15
0.75 0.76 0.82 0.79 0.72 0.56 0.40 0.32 0.22 0.19 0.19 0.19 0.17 0.14 0.12 0.09 0.07 0.06 0.05 0.05 0.04 0.04 0.05 0.07 0.09 0.10 0.12 0.13 0.12 0.09 0.10 0.15 0.18 0.18 0.17 0.16 0.14 0.14
0.39 0.45 0.48 0.46 0.40 0.29 0.19 0.15 0.09 0.07 0.07 0.07 0.08 0.06 0.06 0.05 0.05 0.05 0.05 0.04 0.04 0.04 0.05 0.05 0.06 0.07 0.07 0.10 0.11 0.09 0.09 0.12 0.13 0.12 0.13 0.15 0.16 0.16
0.12 0.13 0.13 0.11 0.10 0.07 0.05 0.05 0.05 0.04 0.04 0.03 0.04 0.04 0.04 0.04 0.04 0.04 0.05 0.05 0.05 0.04 0.04 0.04 0.04 0.05 0.06 0.08 0.09 0.08 0.06 0.06 0.08 0.13 0.14 0.14 0.14 0.15
0.04 0.04 0.04 0.03 0.02 0.02 0.02 0.02 0.03 0.03 0.02 0.02 0.02 0.02 0.03 0.04 0.04 0.05 0.04 0.04 0.04 0.04 0.03 0.03 0.03 0.04 0.05 0.06 0.07 0.07 0.06 0.05 0.06 0.09 0.17 0.26 0.23 0.16